Location: Heiligenberg
(48.5381°N, 7.3897°E)
Time: 00:03:17
(UTC+00:00)

Thor Agena Rocket - Pass Details

Date: 26 May 2022
Orbit: 759 x 807 km, 99.0° (Epoch: 02 July)

Event Time Altitude Azimuth Distance (km) Brightness Sun altitude
Rises 00:05:52 0° 20° (NNE) 3,323 8.3 -19.8°
Reaches altitude 10° 00:08:20 10° 28° (NNE) 2,392 7.1 -19.8°
Maximum altitude 00:13:20 42° 98° (E) 1,142 4.4 -19.6°
Enters shadow 00:15:38 28° 150° (SSE) 1,492 4.6 -19.5°
